Regional Weather Roundup
Issued by NWS

Home | Current Version | Previous Version | Graphics & Text | Print | Product List | Glossary Off
Versions: 1 2 3 4 5 6 7 8 9 10 11 12 13 14 15 16 17 18 19 20 21 22 23 24 25 26 27 28 29 30 31 32 33 34 35 36 37 38 39 40 41 42 43 44 45 46 47 48 49 50

000
ASUS43 KTOP 300759
RWRKS

WEATHER ROUNDUP FOR KANSAS
NATIONAL WEATHER SERVICE GOODLAND KS
300 AM CDT TUE SEP 30 2014

NOTE:  "FAIR" INDICATES FEW OR NO CLOUDS BELOW 12,000 FEET WITH NO
SIGNIFICANT WEATHER AND/OR OBSTRUCTIONS TO VISIBILITY.

KSZ001>006-013>018-027>032-041>047-300900-
NORTHWEST KANSAS

CITY           SKY/WX    TMP DP  RH WIND       PRES   REMARKS
GOODLAND       CLEAR     52  47  83 SW8       29.88S
HAYS           CLOUDY    66  54  63 S13       29.86R
HILL CITY      CLOUDY    65  57  75 S8        29.83F
RUSSELL        CLOUDY    67  56  67 S18G24    29.85S
$$

KSZ061>065-074>080-084>089-300900-
SOUTHWEST KANSAS

CITY           SKY/WX    TMP DP  RH WIND       PRES   REMARKS
DODGE CITY     CLOUDY    67  54  63 S15G24    29.88S
ELKHART          N/A     61  57  87 S3          N/A
GARDEN CITY    LGT RAIN  63  61  93 S12       29.89R
GREAT BEND     CLOUDY    70  55  60 S18       29.88R
LIBERAL        CLOUDY    64  55  72 SE8       29.91R
$$

KSZ066>073-081>083-090>101-300900-
SOUTHEAST KANSAS

CITY           SKY/WX    TMP DP  RH WIND       PRES   REMARKS
CHANUTE        CLEAR     62  59  90 SE7       29.96F
COFFEYVILLE    PTCLDY    60  58  92 E3        29.95S
HUTCHINSON     PTCLDY    65  56  72 SE7       29.91F
MEDICINE LODGE   N/A     67  56  67 S8        29.89F
NEWTON         PTCLDY    63  54  72 S9        29.94F
PARSONS        CLEAR     59  58  96 E3        29.96F
WICHITA INTL   MOCLDY    66  57  72 S9        29.92S
WICHITA JABRA  FAIR      64  57  78 S7        29.93S
WINFIELD       PTCLDY    65  58  78 SE7       29.94S
$$

KSZ007>012-019>026-033>040-048>060-102>105-300900-
NORTHEAST KANSAS

CITY           SKY/WX    TMP DP  RH WIND       PRES   REMARKS
CONCORDIA      MOCLDY    68  59  73 S15G22    29.88F
EMPORIA        PTCLDY    62  59  90 SE7       29.94F
LAWRENCE       MOCLDY    59  57  93 E3        29.95F
MANHATTAN      PTCLDY    66  59  78 CALM      29.90F
OLATHE IND     MOCLDY    63  58  83 SE7       29.97S
OLATHE EXE     PTCLDY    64  60  87 S3        29.96F
SALINA         PTCLDY    67  58  72 S9        29.89F
TOPEKA BILLARD PTCLDY    64  60  87 CALM      29.94F
TOPEKA FORBES  PTCLDY    60  57  89 SE5       29.94F
$$



USA.gov is the U.S. government's official web portal to all federal, state and local government web resources and services.